Starlink 5432

operational
NORAD ID: 54848 Int'l Des: 2022-177 Owner: SPXS Country: US Constellation: starlink
LEOCIRCULAR

Starlink 5432について

説明を読み込み中...

リアルタイム位置

3D地球を読み込み中...

次回通過

高度履歴

Altitude vs Time

uPlot chart will show altitude changes over time

軌道要素

1 54848U 22177AE 26063.00001157 .00022907 00000-0 15704-2 0 9998
2 54848 43.0002 151.5352 0001923 278.4736 163.6836 15.05627477 5646
Epoch: Mar 4, 2026 • Age: 21 hours

現在のステータス

高度 550.2 km
速度 7.59 km/s
衛星直下点 23.80°N, 178.5°W
打ち上げ日 Dec 28, 2022
運用期間 3.1 years
タイプ internet

技術仕様

分類 Payload
質量 305.00 kg
乾燥質量 290.00 kg
総質量 305.00 kg
長さ 0.20 m
直径 2.80 m
スパン 9.00 m
形状 Box + pan
製造者 SPXS
バスタイプ Starlink
フェーズステータス In Orbit
所有者/国 SPXS/US

大規模コンステレーション

Loading constellations...